Location: Buchloe
(48.0161°N, 10.7316°E)
Time: 23:13:15
(UTC+01:00)

ISS - Pass Details

Date: 07 December 2021
Orbit: 413 x 422 km, 51.6° (Epoch: 25 January)

Event Time Altitude Azimuth Distance (km) Brightness Sun altitude
Rises 17:02:54 0° 292° (WNW) 2,387 0.7 -6.4°
Reaches altitude 10° 17:05:01 10° 290° (WNW) 1,517 -0.2 -6.7°
Maximum altitude 17:08:24 67° 208° (SSW) 463 -3.3 -7.2°
Drops below altitude 10° 17:11:46 10° 125° (SE) 1,504 -1.2 -7.7°
Enters shadow 17:14:46 -3° 122° (ESE) 2,737 0.1 -8.2°
